Weather History for PAWI - August, 2014

Change the Weather History Date:

Monday, August 25, 2014

  Actual Average (PABR) Record (PABR)
Temperature  
Mean Temperature 40 °F 38 °F  
Max Temperature 46 °F 42 °F 61 °F (1979)
Min Temperature 36 °F 34 °F 23 °F (1955)
Degree Days  
Heating Degree Days 25 27  
Month to date heating degree days 641  
Since 1 June heating degree days 2268  
Since 1 July heating degree days 1388  
Cooling Degree Days 0    
Month to date cooling degree days  
Year to date cooling degree days  
Since 1 June cooling degree days  
Moisture  
Dew Point 34 °F    
Average Humidity 79    
Maximum Humidity 89    
Minimum Humidity 66    
Precipitation  
Precipitation 0.00 in 0.04 in 0.55 in (2015)
Month to date precipitation 0.86  
Year to date precipitation 2.86  
Snow  
Snow 0.00 in 0.10 in 2.10 in (1984)
Month to date snowfall 0.6  
Since 1 June snowfall 1.5  
Since 1 July snowfall 0.8  
Snow Depth -    
Sea Level Pressure  
Sea Level Pressure 29.81 in    
Wind  
Wind Speed 15 mph (East)    
Max Wind Speed 22 mph    
Max Gust Speed 28 mph    
Visibility 10 miles    
Events      
T = Trace of Precipitation, MM = Missing Value Source: NWS Daily Summary

Daily Weather History Graph

Daily Weather History Graph

Search for Another Location

Airport or City:

Trip Planner

Search our weather history database for the weather conditions in past years. The results will help you decide how hot, cold, wet, or windy it might be!

Date:

Astronomy

Aug. 25, 2014 Rise Set
Actual Time 6:20 AM AKDT 11:00 PM AKDT
Civil Twilight 4:46 AM AKDT 12:31 AM AKDT
Nautical Twilight Sun does not set Sun does not set
Astronomical Twilight Sun does not set Sun does not set
Moon 7:18 AM AKDT (8/25) 9:57 PM AKDT (8/25)
Length of Visible Light 19h 45m
Length of Day
16h 39m
New Moon, 0% of the Moon is Illuminated
Aug 25
New Moon
Sep 2
First Quarter
Sep 8
Full
Sep 15
Last Quarter
Sep 23
New

Hourly Weather History & Observations

Time (AKDT) Temp. Windchill Dew Point Humidity Pressure Visibility Wind Dir Wind Speed Gust Speed Precip Events Conditions
12:53 AM 37.9 °F 30.0 °F 33.1 °F 83% 29.86 in 10.0 mi East 12.7 mph - N/A   Overcast
2:53 AM 37.9 °F 30.0 °F 33.1 °F 83% 29.85 in 10.0 mi East 12.7 mph - N/A   Overcast
3:46 AM 37.4 °F 29.3 °F 33.8 °F 87% 29.84 in 10.0 mi ENE 12.7 mph - N/A   Overcast
4:53 AM 37.0 °F 28.1 °F 33.1 °F 86% 29.84 in 8.0 mi East 15.0 mph - N/A   Overcast
5:53 AM 36.0 °F 27.5 °F 33.1 °F 89% 29.83 in 10.0 mi ENE 12.7 mph - N/A   Overcast
6:53 AM 36.0 °F 27.1 °F 33.1 °F 89% 29.83 in 9.0 mi East 13.8 mph - N/A   Overcast
7:53 AM 37.0 °F 28.1 °F 33.1 °F 86% 29.82 in 10.0 mi East 15.0 mph - N/A   Overcast
8:53 AM 37.9 °F 28.2 °F 33.1 °F 83% 29.81 in 10.0 mi East 18.4 mph 25.3 mph N/A   Overcast
9:12 AM 37.4 °F 27.8 °F 33.8 °F 87% 29.81 in 10.0 mi East 17.3 mph 24.2 mph N/A   Overcast
9:22 AM 37.4 °F 28.2 °F 33.8 °F 87% 29.81 in 10.0 mi East 16.1 mph 23.0 mph N/A   Overcast
9:53 AM 39.0 °F 28.8 °F 34.0 °F 82% 29.81 in 10.0 mi East 21.9 mph - N/A   Overcast
10:09 AM 39.2 °F 29.3 °F 33.8 °F 81% 29.81 in 10.0 mi East 20.7 mph 26.5 mph N/A   Overcast
10:53 AM 39.9 °F 30.5 °F 34.0 °F 79% 29.81 in 10.0 mi East 19.6 mph 24.2 mph N/A   Overcast
12:22 PM 41.0 °F 31.9 °F 33.8 °F 76% 29.81 in 10.0 mi East 19.6 mph - N/A   Overcast
12:53 PM 41.0 °F 31.6 °F 33.1 °F 73% 29.81 in 10.0 mi East 20.7 mph 27.6 mph N/A   Overcast
1:53 PM 43.0 °F 34.2 °F 34.0 °F 71% 29.81 in 10.0 mi East 20.7 mph 26.5 mph N/A   Overcast
2:53 PM 42.1 °F 33.6 °F 34.0 °F 73% 29.81 in 6.0 mi East 18.4 mph - N/A   Haze
3:53 PM 44.1 °F 36.5 °F 35.1 °F 71% 29.80 in 10.0 mi East 17.3 mph 24.2 mph N/A   Overcast
4:37 PM 44.6 °F 36.9 °F 33.8 °F 66% 29.79 in 10.0 mi East 18.4 mph - N/A   Scattered Clouds
5:14 PM 44.6 °F 37.8 °F 35.6 °F 71% 29.79 in 10.0 mi East 15.0 mph - N/A   Mostly Cloudy
7:53 PM 43.0 °F 34.5 °F 35.1 °F 74% 29.79 in 10.0 mi East 19.6 mph 24.2 mph N/A   Overcast
8:53 PM 43.0 °F 35.7 °F 35.1 °F 74% 29.79 in 10.0 mi East 15.0 mph - N/A   Overcast
9:53 PM 42.1 °F 34.5 °F 35.1 °F 76% 29.80 in 10.0 mi East 15.0 mph - N/A   Overcast
10:53 PM 42.1 °F 35.7 °F 35.1 °F 76% 29.80 in 10.0 mi East 11.5 mph - N/A   Overcast
11:53 PM 41.0 °F 33.5 °F 35.1 °F 79% 29.80 in 10.0 mi East 13.8 mph - N/A   Overcast